Regional Weather Roundup
Issued by NWS Green Bay, WI

Home | Current Version | Previous Version | Text Only | Print | Product List | Glossary On
Versions: 1 2 3 4 5 6 7 8 9 10 11 12 13 14 15 16 17 18 19 20 21 22 23 24 25 26 27 28 29 30 31 32 33 34 35 36 37 38 39 40 41 42 43 44 45 46 47 48 49 50
000
ASUS43 KGRB 191910
RWRGRB

NORTH-CENTRAL AND NORTHEAST WISCONSIN REGIONAL WEATHER ROUNDUP
NATIONAL WEATHER SERVICE GREEN BAY WI
200 PM CDT FRI SEP 19 2014

WIZ005-009-010>012-018-019-192000-
NORTH CENTRAL WISCONSIN

CITY           SKY/WX    TMP DP  RH WIND       PRES   REMARKS
IRONWOOD       CLOUDY    66  54  63 S17G30    29.73R
MANITOWISH WTR CLOUDY    64  52  65 S18G32    29.81R
ARBOR VITAE    CLOUDY    64  52  64 SW18G28   29.83S
EAGLE RIVER    CLOUDY    64  48  55 S12G22    29.80F
LAND O LAKES   CLOUDY    64  49  58 S16G28    29.77F
RHINELANDER    PTSUNNY   63  50  62 S20G33    29.83F
PHILLIPS       PTSUNNY   66  54  64 S17G29    29.81R
ANTIGO         PTSUNNY   65  52  61 S21G30    29.90F
TOMAHAWK       PTSUNNY   64  52  64 S8        29.84F
MERRILL        PTSUNNY   66  51  58 S20G28    29.88F
$$

WIZ013-073-192000-
NORTHEAST WISCONSIN

CITY           SKY/WX    TMP DP  RH WIND       PRES   REMARKS
IRON MOUNTAIN  PTSUNNY   65  51  60 S20G25    29.88F
MARINETTE      PTSUNNY   70  54  56 SW21G28   29.93F
OCONTO         PTSUNNY   72  52  49 SW17G24   29.94F
$$

WIZ017-030-035>037-045-192000-
CENTRAL WISCONSIN

CITY           SKY/WX    TMP DP  RH WIND       PRES   REMARKS
MEDFORD        MOSUNNY   66  53  63 S18G30    29.85F
WAUSAU         MOSUNNY   70  50  49 S21G30    29.88F
MOSINEE        SUNNY     70  52  52 S23G29    29.92F
MARSHFIELD     MOSUNNY   70  54  56 S17G29    29.89F
WISC RAPIDS    SUNNY     71  53  52 SW16G24   29.93F
STEVENS POINT  SUNNY     69  50  49 S21G31    29.92F
WAUPACA        MOSUNNY   74  53  46 S17       29.95F
SHAWANO        PTSUNNY   72  51  47 SW9G20    29.94F
CLINTONVILLE   MOSUNNY   72  50  46 S18G25    29.94F
$$

WIZ038-039-048-051-192000-
FOX VALLEY

CITY           SKY/WX    TMP DP  RH WIND       PRES   REMARKS
NWS GREEN BAY  PTSUNNY   72  52  49 S14G26    29.96F
APPLETON       PTSUNNY   70  48  46 S25G31    29.97F
OSHKOSH        SUNNY     73  52  47 S24G32    29.96F
FOND DU LAC    SUNNY     72  51  47 S21G26    29.98F
$$

WIZ022-050-052-192000-
EAST CENTRAL WISCONSIN

CITY           SKY/WX    TMP DP  RH WIND       PRES   REMARKS
STURGEON BAY   PTSUNNY   63  55  77 S23G31    29.98F
MANITOWOC      MOSUNNY   64  58  80 S24G33    29.99F
SHEBOYGAN      MOSUNNY   70  56  61 S13G23    30.01F
$$

LMZ563-521-522-541>543-192000-
LAKESHORE

STATION/POSITION TIME  TEMP    WIND        PRES    VSBY  WAVE
                       AIR SEA DIR/SP/G                  HT/PER
                 (UTC) (F)     (DEG/KT/KT) (MB)    (MI)  (FT/S)
SHEBOYGAN LKSHOR 1900   57 54  170/ 16/ 17 1016.8F
KEWAUNEE LKSHORE 1900   57     170/ 18/ 21 1015.0F
NORTHPORT PIER   1900   60     160/ 14/ 23 1015.2F
N MID LAKE BUOY  1900   58 58  190/ 25/ 29 1015.3F         6/ 6
S GREEN BAY BUOY 1900   65     VRB 14/ 16  1015.0F
STURGEON BAY CG  1800   57 55  180/ 12     1018.5   3 1/2  4
CHAMBERS ISLAND  1900   64     150/ 11/ 23 1014.6F
MENOMINEE LKSHOR 1900   66     180/ 13/ 18 1014.6F
$$


USA.gov is the U.S. government's official web portal to all federal, state and local government web resources and services.